[[{"header":{"parameterUnit":"m.s-1","parameterCategory":2,"la1":30.2991,"la2":30.254,"lo1":-89.0895,"lo2":-89.0444,"dy":0.0017,"dx":0.0017,"nx":28,"ny":28,"refTime":"2026-02-15T03:00:00:Z","depth":"0","parameterNumber":2,"parameterNumberName":"U-component_of_CURRENTS"},"data":[0,0,0,0,0,0,0,0,0,0,0,0,0,0,0,0,0,0,0,0,0,0,0,0,0,0,0,0,0,0,0,0,0,0,0,0,0,0,0,0,0,0,0,0,0,0,0,0,0,0,0,0,0,0,0,0,0,0,0.2904,0.2904,0,0.2932,0.2932,0.2932,0.2917,0.2916,0.2916,0.2915,0.2906,0.2906,0.2907,0,0,0,0,0,0,0,0,0,0,0,0,0,0.2842,0.2843,0.2904,0.2905,0.2905,0.2932,0.2932,0.2932,0.2917,0.2916,0.2915,0.2915,0.2906,0.2906,0.2907,0,0,0,0,0,0,0,0,0,0,0,0,0,0.2866,0.2843,0.2904,0.2903,0.2904,0.2932,0.2932,0.2932,0.2917,0.2916,0.2915,0.2915,0.2906,0.2906,0.2907,0.2922,0,0,0.2908,0.2908,0,0,0,0,0,0,0,0,0.2864,0.2868,0.2903,0.2903,0.2904,0.2923,0.2907,0.2928,0.2917,0.2908,0.2915,0.2914,0.2911,0.2911,0.2913,0.2922,0.2921,0.2908,0.2908,0.2908,0.2908,0,0,0,0,0,0,0,0.2863,0.2866,0.2911,0.2904,0.2904,0.2903,0.2906,0.2911,0.291,0.2909,0.2909,0.2917,0.2911,0.2913,0.2913,0.2921,0.2908,0.2908,0.2908,0.2908,0.2976,0.2977,0,0,0,0,0,0,0.2867,0.2865,0.2911,0.2913,0.2886,0.2905,0.2908,0.2915,0.2911,0.2911,0.2918,0.2917,0.2913,0.2913,0.2913,0.2959,0.2908,0.2908,0.2908,0.2974,0.2976,0.2978,0,0,0,0,0,0,0.2865,0.2871,0.291,0.2892,0.2897,0.2907,0.2915,0.2916,0.2922,0.2919,0.2917,0.2925,0.2913,0.2912,0.2929,0.2957,0.2908,0.2908,0.2972,0.2975,0.2977,0.3033,0,0,0,0,0,0,0.2864,0.287,0.2876,0.2892,0.2899,0.2934,0.2916,0.2917,0.293,0.2928,0.2924,0.2922,0.2912,0.2929,0.2929,0.2957,0.2909,0.297,0.2973,0.2976,0.3029,0.3037,0.3044,0,0,0,0,0,0.2861,0.287,0.2876,0.2882,0.2907,0.2935,0.2938,0.294,0.2931,0.2941,0.294,0.2922,0.2949,0.293,0.293,0.2959,0.2969,0.2972,0.2976,0.3026,0.3035,0.3044,0,0,0,0,0,0,0.2842,0.2871,0.2877,0.2893,0.2918,0.2934,0.2943,0.2946,0.2954,0.295,0.2939,0.2939,0.2967,0.2957,0.2937,0.2989,0.2958,0.2961,0.2995,0.3004,0.3012,0.3014,0.2909,0,0,0,0,0,0.2844,0.2858,0.2888,0.2901,0.2916,0.2932,0.2942,0.2948,0.2959,0.2961,0.296,0.2964,0.2983,0.2987,0.2997,0.3021,0.3033,0.3042,0.3049,0.3056,0.3059,0.311,0.3123,0.299,0.299,0.299,0,0,0.2837,0.2857,0.2863,0.2899,0.2915,0.2942,0.2935,0.2958,0.298,0.296,0.2981,0.2989,0.2996,0.3028,0.3039,0.3021,0.3103,0.306,0.3065,0.3066,0.3115,0.3128,0.314,0.2992,0.2992,0.2992,0,0,0.2837,0.2855,0.2869,0.2897,0.2933,0.2949,0.296,0.2985,0.2996,0.3023,0.3022,0.3048,0.3061,0.308,0.3091,0.3146,0.3142,0.3149,0.3185,0.3235,0.3246,0.3256,0.3299,0.3312,0.315,0.315,0.315,0,0.2828,0.2854,0.2878,0.2907,0.2931,0.2955,0.2981,0.3005,0.303,0.3051,0.3035,0.309,0.309,0.3148,0.3164,0.3163,0.3187,0.3148,0.3245,0.3255,0.3264,0.3305,0.3319,0.3154,0.3153,0.3153,0.3153,0,0.2844,0.287,0.2884,0.2929,0.2957,0.2985,0.3027,0.3056,0.307,0.3094,0.315,0.3162,0.3194,0.3205,0.3197,0.3271,0.3266,0.325,0.322,0.3281,0.332,0.3334,0.3158,0.3157,0.3156,0.3155,0,0,0.281,0.288,0.2884,0.2908,0.2972,0.2993,0.3048,0.3103,0.3142,0.3174,0.3228,0.3266,0.3276,0.329,0.3297,0.3336,0.3421,0.332,0.3321,0.3359,0.3535,0.3538,0.3552,0.3423,0.3426,0.3428,0.354,0,0.2815,0.286,0.2901,0.2946,0.2973,0.3027,0.3073,0.3129,0.3177,0.3236,0.328,0.3329,0.331,0.3332,0.3373,0.3414,0.3457,0.3392,0.3473,0.3475,0.3468,0.3569,0.3499,0.3594,0.3553,0.3555,0.3557,0,0.2815,0.2847,0.2886,0.2955,0.2973,0.3004,0.3087,0.3135,0.3236,0.3281,0.3351,0.3385,0.3465,0.3429,0.3537,0.3498,0.352,0.3543,0.3548,0.3538,0.3504,0.3526,0.362,0.3546,0.3577,0.3576,0.3574,0,0.2765,0.2837,0.2861,0.2886,0.2968,0.2997,0.3042,0.3138,0.3205,0.3314,0.338,0.3465,0.3527,0.3574,0.3628,0.3589,0.3744,0.3693,0.3719,0.3719,0.3669,0.3661,0.3696,0.3766,0.3766,0.3766,0.3765,0,0.2749,0.2769,0.2836,0.2849,0.2888,0.2957,0.3017,0.3091,0.3216,0.3294,0.3392,0.3481,0.3568,0.3662,0.3677,0.3764,0.379,0.3754,0.3761,0.3688,0.368,0.3618,0.3577,0.377,0.3769,0.3768,0.3767,0,0.2688,0.2732,0.2765,0.2839,0.2863,0.2886,0.3003,0.3055,0.3186,0.3299,0.3343,0.353,0.3658,0.3745,0.3846,0.3843,0.3816,0.3918,0.3828,0.3823,0.3749,0.3713,0.3595,0.3481,0.3963,0.3964,0.3965,0,0.2659,0.2668,0.2736,0.2749,0.2779,0.2832,0.2871,0.3016,0.3089,0.3316,0.3369,0.3562,0.3682,0.3878,0.3926,0.4001,0.3858,0.3953,0.3858,0.3767,0.3734,0.3536,0.3432,0.3818,0.3818,0.3817,0.3817,0,0.2603,0.2625,0.2649,0.268,0.2711,0.2753,0.2828,0.2896,0.3061,0.3186,0.3361,0.3489,0.3728,0.3818,0.3954,0.3975,0.3786,0.3946,0.3878,0.366,0.3421,0.3307,0.3715,0.3814,0.3814,0.3814,0.3814,0.3814,0.2553,0.2552,0.2581,0.2601,0.2635,0.2656,0.266,0.2772,0.2886,0.3046,0.3246,0.3406,0.3666,0.3874,0.3864,0.3859,0.3766,0.3775,0.3754,0.357,0.3411,0.3817,0.3903,0.3904,0.3904,0.3905,0.3905,0,0.2479,0.2483,0.25,0.2515,0.2505,0.2552,0.2611,0.2607,0.2683,0.29,0.3052,0.3334,0.3508,0.3668,0.3806,0.3696,0.3474,0.3607,0.3318,0.3234,0.3649,0.3596,0.3586,0.3586,0.3586,0.3586,0.3586,0.3586,0.2438,0.2414,0.2419,0.2371,0.2374,0.2324,0.2321,0.2355,0.2479,0.2645,0.2814,0.3015,0.3412,0.3699,0.3687,0.3586,0.327,0.3158,0.3079,0.3414,0.3426,0.3437,0.3377,0.3322,0.3322,0.2527,0.2522,0.2518]},{"header":{"parameterUnit":"m.s-1","parameterCategory":2,"la1":30.2991,"la2":30.254,"lo1":-89.0895,"lo2":-89.0444,"dy":0.0017,"dx":0.0017,"nx":28,"ny":28,"refTime":"2026-02-15T03:00:00:Z","depth":"0","parameterNumber":3,"parameterNumberName":"V-component_of_CURRENTS"},"data":[0,0,0,0,0,0,0,0,0,0,0,0,0,0,0,0,0,0,0,0,0,0,0,0,0,0,0,0,0,0,0,0,0,0,0,0,0,0,0,0,0,0,0,0,0,0,0,0,0,0,0,0,0,0,0,0,0,0,0.0199,0.0198,0,0.011,0.0109,0.0108,0.0054,0.0054,0.0054,0.0053,-0.0058,-0.0061,-0.0064,0,0,0,0,0,0,0,0,0,0,0,0,0,0.0251,0.025,0.0199,0.0198,0.0197,0.011,0.0109,0.0107,0.0054,0.0054,0.0054,0.0053,-0.0057,-0.0061,-0.0064,0,0,0,0,0,0,0,0,0,0,0,0,0,0.02,0.025,0.0199,0.0161,0.0157,0.011,0.0109,0.0107,0.0054,0.0054,0.0053,0.0053,-0.0056,-0.006,-0.0065,-0.0089,0,0,-0.0078,-0.008,0,0,0,0,0,0,0,0,0.0203,0.0198,0.0168,0.0164,0.0159,0.0094,0.0086,0.0041,0.0054,0.0091,0.0053,0.0053,-0.0008,-0.0016,-0.0035,-0.0094,-0.0099,-0.0078,-0.0081,-0.0083,-0.0084,0,0,0,0,0,0,0,0.0207,0.0201,0.0162,0.0167,0.0161,0.0124,0.0117,0.0077,0.0041,0.0088,0.0084,0.0077,-0.0011,-0.0031,-0.0038,-0.01,-0.0078,-0.0082,-0.0085,-0.0086,-0.0175,-0.0175,0,0,0,0,0,0,0.0226,0.0205,0.0165,0.0159,0.0183,0.0124,0.0116,0.0114,0.0042,0.0032,0.0077,0.0075,-0.0023,-0.0033,-0.0042,-0.0054,-0.0083,-0.0087,-0.0089,-0.0176,-0.0175,-0.0175,0,0,0,0,0,0,0.0227,0.0223,0.0168,0.0181,0.0172,0.0124,0.0121,0.0112,0.0096,0.0035,0.0024,0.0072,-0.0024,-0.0036,-0.0068,-0.0059,-0.0089,-0.0093,-0.0176,-0.0176,-0.0175,-0.0091,0,0,0,0,0,0,0.0229,0.0224,0.0228,0.0183,0.0172,0.0152,0.0121,0.0111,0.0093,0.0089,0.0026,0.0016,-0.0025,-0.0062,-0.0073,-0.0066,-0.0096,-0.0176,-0.0176,-0.0175,-0.0094,-0.0088,-0.0082,0,0,0,0,0,0.0231,0.0242,0.0229,0.0224,0.0179,0.0153,0.0144,0.0107,0.0093,0.0091,0.0051,0.0018,-0.0067,-0.0065,-0.0078,-0.0072,-0.0176,-0.0176,-0.0175,-0.0097,-0.0089,-0.0082,0,0,0,0,0,0,0.0267,0.0236,0.0221,0.0222,0.0195,0.0145,0.014,0.0115,0.008,0.0078,0.0019,0.0006,-0.002,-0.0058,-0.0054,-0.0097,-0.0127,-0.0129,-0.0063,-0.0056,-0.005,-0.0028,-0.01,0,0,0,0,0,0.0277,0.0278,0.024,0.0242,0.0232,0.0188,0.0172,0.0149,0.0113,0.0097,0.0054,0.0008,-0.003,-0.005,-0.0091,-0.0114,-0.0151,-0.0119,-0.0114,-0.0108,-0.0099,-0.0146,-0.0143,-0.0173,-0.0173,-0.0173,0,0,0.0291,0.0275,0.0274,0.0249,0.0225,0.0221,0.0178,0.0164,0.0159,0.009,0.0073,0.0026,-0.0032,-0.0056,-0.0071,-0.0085,-0.0119,-0.0108,-0.0102,-0.0097,-0.0145,-0.0142,-0.0139,-0.0173,-0.0173,-0.0173,0,0,0.0324,0.0306,0.0319,0.0302,0.0276,0.0249,0.0251,0.0208,0.0189,0.0163,0.0115,0.0079,0.0018,-0.0018,-0.0045,-0.0033,-0.0087,-0.0048,-0.0001,-0.0045,-0.0043,-0.0041,-0.008,-0.0083,-0.0045,-0.0044,-0.0044,0,0.0341,0.0352,0.0318,0.0326,0.0321,0.027,0.0284,0.0255,0.0206,0.0198,0.0171,0.0087,0.0038,0.0009,0.0012,-0.0019,-0.0052,-0.002,-0.0036,-0.0035,-0.0035,-0.0076,-0.008,-0.004,-0.0041,-0.0041,-0.0041,0,0.0381,0.0389,0.0397,0.0392,0.0382,0.0386,0.0348,0.0334,0.0303,0.0272,0.0237,0.0165,0.0119,0.0093,0.0054,0.0034,0.0007,-0.0022,-0.0049,-0.0027,-0.0071,-0.0077,-0.0034,-0.0036,-0.0037,-0.0038,0,0,0.0424,0.0427,0.0429,0.0446,0.0421,0.0422,0.0416,0.04,0.0406,0.0344,0.0343,0.0265,0.0225,0.0191,0.0134,0.0091,0.006,0.0042,0.0038,0.0014,-0.0035,-0.0036,-0.0043,0.0028,0.0027,0.0027,-0.0065,0,0.0467,0.0507,0.0491,0.0529,0.0549,0.051,0.0512,0.0489,0.0459,0.0442,0.0362,0.0335,0.0262,0.0245,0.019,0.0097,0.0049,0.0088,-0.0061,-0.0065,-0.0062,-0.0048,-0.0018,-0.0096,-0.007,-0.0071,-0.0072,0,0.0513,0.0537,0.0583,0.061,0.0615,0.0623,0.063,0.0625,0.0582,0.0561,0.0514,0.0451,0.0383,0.0316,0.0168,0.0197,0.0091,0.001,0.0004,-0.003,-0.0077,-0.0116,-0.0107,-0.0283,-0.0081,-0.008,-0.008,0,0.0567,0.0604,0.0648,0.0654,0.0668,0.0681,0.0683,0.066,0.0682,0.0637,0.065,0.0544,0.0507,0.0362,0.0198,0.0181,0.0033,-0.0014,-0.0119,-0.0121,-0.014,-0.0142,-0.0309,-0.0124,-0.0124,-0.0123,-0.0123,0,0.0622,0.0658,0.0678,0.07,0.0761,0.0742,0.0794,0.0779,0.0783,0.0824,0.0716,0.0729,0.0518,0.0409,0.0236,0.0056,0.0059,-0.0105,-0.0142,-0.011,-0.0108,-0.0298,-0.0412,-0.0127,-0.0126,-0.0125,-0.0125,0,0.0671,0.068,0.0738,0.077,0.0787,0.0826,0.0883,0.0923,0.0909,0.096,0.0956,0.0873,0.0734,0.0519,0.0289,0.0126,-0.0167,-0.0132,-0.0074,-0.0102,-0.0362,-0.0471,-0.0693,-0.078,-0.0263,-0.0263,-0.0264,0,0.0699,0.0733,0.0795,0.084,0.0857,0.0916,0.0964,0.0982,0.1042,0.1058,0.1099,0.099,0.0947,0.0615,0.0301,0.0004,-0.0185,-0.0172,-0.0204,-0.0366,-0.0517,-0.0599,-0.0662,-0.0203,-0.0203,-0.0203,-0.0203,0,0.0757,0.0774,0.0821,0.0914,0.0977,0.1062,0.1135,0.1212,0.124,0.1298,0.1351,0.132,0.1007,0.0736,0.0326,0.0106,-0.0295,-0.0179,-0.037,-0.0497,-0.0578,-0.068,-0.0156,-0.0202,-0.0202,-0.0202,-0.0202,-0.0202,0.0798,0.0844,0.0907,0.0997,0.1076,0.119,0.1279,0.138,0.1501,0.1606,0.156,0.1577,0.1157,0.0612,0.0278,-0.0285,-0.032,-0.0448,-0.0571,-0.0642,-0.0716,-0.0181,-0.0253,-0.0254,-0.0254,-0.0254,-0.0254,0,0.0851,0.0904,0.0989,0.1097,0.1196,0.123,0.1386,0.1492,0.1655,0.1777,0.184,0.1693,0.1165,0.0616,-0.0153,-0.0577,-0.0749,-0.082,-0.0943,-0.0992,-0.053,-0.0515,-0.0619,-0.0619,-0.0619,-0.0618,-0.0618,-0.0618,0.088,0.0965,0.1009,0.1174,0.1258,0.1408,0.1506,0.1672,0.1812,0.1993,0.2063,0.2082,0.1695,0.0241,-0.071,-0.0946,-0.1271,-0.1354,-0.152,-0.1213,-0.1188,-0.1164,-0.1175,-0.1416,-0.1417,-0.1905,-0.191,-0.1914]}],[{"header":{"parameterUnit":"m.s-1","parameterCategory":2,"la1":30.2991,"la2":30.254,"lo1":-89.0895,"lo2":-89.0444,"dy":0.0017,"dx":0.0017,"nx":28,"ny":28,"refTime":"2026-02-15T03:00:00:Z","depth":"2","parameterNumber":2,"parameterNumberName":"U-component_of_CURRENTS"},"data":[0,0,0,0,0,0,0,0,0,0,0,0,0,0,0,0,0,0,0,0,0,0,0,0,0,0,0,0,0,0,0,0,0,0,0,0,0,0,0,0,0,0,0,0,0,0,0,0,0,0,0,0,0,0,0,0,0,0,0.275,0.275,0,0.2779,0.2779,0.2779,0.2772,0.2771,0.2771,0.2771,0.277,0.277,0.277,0,0,0,0,0,0,0,0,0,0,0,0,0,0.2684,0.2685,0.275,0.275,0.2751,0.2778,0.2779,0.2779,0.2772,0.2771,0.2771,0.2771,0.2769,0.277,0.277,0,0,0,0,0,0,0,0,0,0,0,0,0,0.2709,0.2685,0.275,0.2753,0.2754,0.2778,0.2779,0.2779,0.2772,0.2771,0.2771,0.2771,0.2769,0.277,0.277,0.2779,0,0,0.2771,0.2771,0,0,0,0,0,0,0,0,0.2708,0.2711,0.2752,0.2753,0.2754,0.2774,0.2755,0.2779,0.2772,0.2762,0.2771,0.277,0.2771,0.2771,0.2773,0.2779,0.2779,0.2771,0.2771,0.2771,0.2771,0,0,0,0,0,0,0,0.2706,0.271,0.2758,0.2753,0.2754,0.2752,0.2755,0.2759,0.2765,0.2762,0.2763,0.2771,0.277,0.2773,0.2773,0.2779,0.2771,0.2771,0.2771,0.2771,0.2837,0.2839,0,0,0,0,0,0,0.271,0.2709,0.2757,0.2759,0.2733,0.2754,0.2757,0.2765,0.2765,0.2766,0.2772,0.2771,0.2772,0.2772,0.2773,0.2822,0.2771,0.2772,0.2772,0.2836,0.2838,0.2839,0,0,0,0,0,0,0.2709,0.2714,0.2756,0.2737,0.2743,0.2756,0.2765,0.2766,0.2776,0.2773,0.2773,0.2782,0.2772,0.2772,0.279,0.282,0.2772,0.2772,0.2834,0.2836,0.2838,0.2895,0,0,0,0,0,0,0.2707,0.2714,0.2722,0.2737,0.2744,0.2779,0.2766,0.2767,0.2783,0.2783,0.2782,0.2781,0.2772,0.279,0.2791,0.2819,0.2772,0.2832,0.2835,0.2838,0.2891,0.2899,0.2906,0,0,0,0,0,0.2704,0.2715,0.2722,0.2728,0.2755,0.2781,0.2784,0.2789,0.2784,0.2795,0.2797,0.2781,0.2809,0.2791,0.2792,0.2821,0.283,0.2834,0.2837,0.2888,0.2898,0.2906,0,0,0,0,0,0,0.2688,0.2717,0.2724,0.2743,0.2766,0.2781,0.2792,0.2797,0.2807,0.2806,0.2797,0.2797,0.2827,0.2817,0.2798,0.2851,0.2819,0.2823,0.2858,0.2867,0.2874,0.2876,0.2772,0,0,0,0,0,0.2691,0.2707,0.2736,0.2751,0.2765,0.2781,0.2793,0.28,0.2812,0.2816,0.2817,0.2824,0.2842,0.2847,0.2857,0.2881,0.289,0.2903,0.291,0.2916,0.292,0.2966,0.2978,0.2851,0.2851,0.2851,0,0,0.2686,0.2707,0.2715,0.2749,0.2766,0.2791,0.2786,0.2811,0.2833,0.2815,0.284,0.2849,0.2855,0.2886,0.2899,0.2881,0.296,0.2921,0.2926,0.2926,0.2971,0.2984,0.2995,0.2853,0.2853,0.2852,0,0,0.2688,0.2709,0.2725,0.2751,0.2787,0.2802,0.2813,0.2839,0.2852,0.288,0.288,0.2908,0.2922,0.294,0.2949,0.3002,0.2999,0.3008,0.3044,0.3089,0.31,0.311,0.3148,0.316,0.3009,0.3009,0.3009,0,0.2683,0.2709,0.2734,0.2762,0.2784,0.281,0.2835,0.2858,0.2885,0.2906,0.2895,0.2948,0.295,0.3003,0.3022,0.3019,0.3041,0.3008,0.3099,0.3109,0.3117,0.3154,0.3167,0.3012,0.3012,0.3012,0.3011,0,0.2699,0.2726,0.274,0.2784,0.2812,0.2839,0.2879,0.2909,0.2927,0.2951,0.3006,0.3018,0.305,0.3062,0.3055,0.3126,0.3121,0.3105,0.3075,0.3134,0.3169,0.3181,0.3017,0.3016,0.3015,0.3014,0,0,0.267,0.2737,0.2742,0.2766,0.2827,0.2847,0.2901,0.2954,0.2992,0.3027,0.3079,0.3117,0.313,0.3142,0.315,0.3187,0.3268,0.3174,0.3175,0.3209,0.3373,0.3361,0.3373,0.3271,0.3273,0.3275,0.3376,0,0.2674,0.2719,0.2758,0.2803,0.2829,0.2882,0.2926,0.298,0.3028,0.3086,0.3128,0.3177,0.3161,0.3185,0.3224,0.3262,0.3303,0.3243,0.3314,0.3316,0.3295,0.3387,0.3135,0.3203,0.3388,0.339,0.3392,0,0.2676,0.2708,0.2746,0.2813,0.2831,0.2862,0.2942,0.2989,0.3085,0.3129,0.3197,0.3231,0.3308,0.3277,0.3377,0.3342,0.3363,0.3383,0.3387,0.3362,0.3326,0.3174,0.3219,0.3413,0.3411,0.3409,0.3408,0,0.2629,0.2699,0.2725,0.2748,0.2828,0.2858,0.2903,0.2995,0.3058,0.3164,0.3228,0.3307,0.3368,0.3411,0.3463,0.3428,0.3568,0.3521,0.3529,0.3528,0.332,0.3297,0.3588,0.3588,0.3588,0.3588,0.3587,0,0.2613,0.2635,0.2703,0.2717,0.2757,0.2824,0.2884,0.2954,0.3074,0.3146,0.3242,0.3323,0.3408,0.3495,0.3508,0.3578,0.361,0.3561,0.3565,0.3335,0.3313,0.3489,0.3476,0.3591,0.359,0.359,0.3589,0,0.2556,0.2601,0.2635,0.271,0.2734,0.276,0.2875,0.2924,0.305,0.3156,0.32,0.3373,0.3488,0.3568,0.366,0.3649,0.37,0.3706,0.3436,0.3408,0.3612,0.3601,0.3727,0.3728,0.3729,0.3729,0.3729,0,0.2529,0.2539,0.261,0.2625,0.2657,0.2712,0.2751,0.2889,0.2958,0.317,0.3218,0.3398,0.3497,0.3665,0.3684,0.374,0.3753,0.3519,0.3405,0.3642,0.3633,0.3621,0.3609,0.3149,0.3144,0.3141,0.3138,0,0.2475,0.25,0.2525,0.256,0.2594,0.2635,0.271,0.2771,0.2927,0.3042,0.3196,0.3305,0.3497,0.347,0.3576,0.3557,0.3492,0.3451,0.3777,0.3165,0.3108,0.3095,0.3101,0.3106,0.3109,0.3111,0.3113,0.3114,0.2428,0.2429,0.2461,0.2484,0.2521,0.254,0.2542,0.2645,0.2745,0.2877,0.3055,0.3133,0.3239,0.3289,0.3225,0.3183,0.3412,0.3246,0.3251,0.3262,0.319,0.3138,0.3128,0.3131,0.3134,0.3136,0.3138,0,0.2356,0.2364,0.2383,0.24,0.239,0.2442,0.2494,0.2478,0.2537,0.2697,0.2814,0.2691,0.2739,0.2818,0.2733,0.2781,0.2689,0.2649,0.249,0.2529,0.2562,0.2445,0.219,0.2186,0.2182,0.2179,0,0,0.2316,0.2295,0.23,0.2255,0.2264,0.2216,0.2211,0.2221,0.23,0.2327,0.2366,0.2615,0.2767,0.2423,0.2425,0.2281,0.2362,0.2197,0.2978,0.2831,0.2858,0.2955,0.2829,0,0,0,0,0]},{"header":{"parameterUnit":"m.s-1","parameterCategory":2,"la1":30.2991,"la2":30.254,"lo1":-89.0895,"lo2":-89.0444,"dy":0.0017,"dx":0.0017,"nx":28,"ny":28,"refTime":"2026-02-15T03:00:00:Z","depth":"2","parameterNumber":3,"parameterNumberName":"V-component_of_CURRENTS"},"data":[0,0,0,0,0,0,0,0,0,0,0,0,0,0,0,0,0,0,0,0,0,0,0,0,0,0,0,0,0,0,0,0,0,0,0,0,0,0,0,0,0,0,0,0,0,0,0,0,0,0,0,0,0,0,0,0,0,0,0.0078,0.0077,0,-0.0004,-0.0005,-0.0007,-0.0055,-0.0055,-0.0055,-0.0055,-0.0159,-0.0162,-0.0165,0,0,0,0,0,0,0,0,0,0,0,0,0,0.0126,0.0125,0.0078,0.0077,0.0076,-0.0004,-0.0006,-0.0007,-0.0055,-0.0055,-0.0055,-0.0055,-0.0158,-0.0162,-0.0165,0,0,0,0,0,0,0,0,0,0,0,0,0,0.0079,0.0125,0.0078,0.0043,0.0039,-0.0004,-0.0006,-0.0007,-0.0055,-0.0055,-0.0055,-0.0055,-0.0157,-0.0161,-0.0165,-0.0188,0,0,-0.0178,-0.0179,0,0,0,0,0,0,0,0,0.0082,0.0077,0.0049,0.0046,0.0041,-0.0018,-0.0027,-0.0068,-0.0055,-0.0021,-0.0055,-0.0055,-0.0113,-0.0121,-0.0138,-0.0193,-0.0198,-0.0178,-0.018,-0.0182,-0.0183,0,0,0,0,0,0,0,0.0085,0.008,0.0043,0.0048,0.0043,0.0009,0.0003,-0.0035,-0.0067,-0.0024,-0.0027,-0.0034,-0.0116,-0.0134,-0.0141,-0.0199,-0.0178,-0.0181,-0.0184,-0.0186,-0.0269,-0.0268,0,0,0,0,0,0,0.0102,0.0083,0.0046,0.0041,0.0063,0.0009,0.0002,-0.0,-0.0066,-0.0076,-0.0034,-0.0036,-0.0127,-0.0136,-0.0145,-0.0154,-0.0182,-0.0186,-0.0188,-0.0269,-0.0269,-0.0268,0,0,0,0,0,0,0.0104,0.01,0.0049,0.0061,0.0053,0.0009,0.0006,-0.0002,-0.0016,-0.0073,-0.0083,-0.0038,-0.0127,-0.0139,-0.0169,-0.0159,-0.0188,-0.0191,-0.0269,-0.0269,-0.0268,-0.0188,0,0,0,0,0,0,0.0105,0.0101,0.0105,0.0063,0.0053,0.0035,0.0006,-0.0003,-0.0019,-0.0022,-0.008,-0.009,-0.0128,-0.0162,-0.0173,-0.0166,-0.0195,-0.0269,-0.0269,-0.0269,-0.0191,-0.0185,-0.0179,0,0,0,0,0,0.0107,0.0118,0.0106,0.0101,0.006,0.0036,0.0028,-0.0006,-0.0019,-0.002,-0.0058,-0.0088,-0.0167,-0.0165,-0.0178,-0.0171,-0.027,-0.0269,-0.0269,-0.0193,-0.0186,-0.018,0,0,0,0,0,0,0.0141,0.0113,0.0099,0.01,0.0075,0.0028,0.0025,0.0001,-0.003,-0.0032,-0.0087,-0.0099,-0.0123,-0.0159,-0.0155,-0.0195,-0.0223,-0.0225,-0.0162,-0.0155,-0.015,-0.0128,-0.0198,0,0,0,0,0,0.0152,0.0153,0.0118,0.0119,0.0111,0.0069,0.0055,0.0034,0.0,-0.0014,-0.0054,-0.0096,-0.0132,-0.0151,-0.0189,-0.021,-0.0245,-0.0215,-0.0209,-0.0204,-0.0195,-0.0239,-0.0236,-0.0267,-0.0267,-0.0267,0,0,0.0165,0.015,0.015,0.0127,0.0105,0.0101,0.0061,0.0049,0.0045,-0.002,-0.0035,-0.0079,-0.0134,-0.0156,-0.017,-0.0183,-0.0214,-0.0204,-0.0199,-0.0193,-0.0238,-0.0235,-0.0233,-0.0266,-0.0266,-0.0266,0,0,0.0197,0.0181,0.0194,0.0178,0.0154,0.0129,0.0131,0.0091,0.0074,0.0051,0.0005,-0.0028,-0.0085,-0.0119,-0.0145,-0.0133,-0.0183,-0.0147,-0.0101,-0.0143,-0.0141,-0.0139,-0.0174,-0.0176,-0.0143,-0.0143,-0.0143,0,0.0214,0.0226,0.0193,0.0201,0.0198,0.0149,0.0164,0.0136,0.0092,0.0084,0.0059,-0.0019,-0.0066,-0.0093,-0.009,-0.0119,-0.015,-0.0119,-0.0134,-0.0134,-0.0133,-0.017,-0.0173,-0.0139,-0.0139,-0.014,-0.014,0,0.0254,0.0262,0.027,0.0266,0.0257,0.0261,0.0226,0.0213,0.0185,0.0156,0.0123,0.0055,0.0012,-0.0012,-0.0049,-0.0068,-0.0092,-0.0121,-0.0146,-0.0125,-0.0165,-0.017,-0.0133,-0.0135,-0.0136,-0.0137,0,0,0.0295,0.0298,0.0301,0.0318,0.0295,0.0296,0.0292,0.0277,0.0284,0.0225,0.0224,0.0151,0.0114,0.0082,0.0028,-0.0013,-0.004,-0.0058,-0.0063,-0.0083,-0.0128,-0.0138,-0.0145,-0.0072,-0.0073,-0.0073,-0.0155,0,0.0337,0.0376,0.0361,0.0399,0.0419,0.0382,0.0385,0.0363,0.0335,0.0319,0.0243,0.0218,0.015,0.0134,0.0082,-0.0007,-0.005,-0.0015,-0.0154,-0.0158,-0.0162,-0.015,-0.0119,-0.0189,-0.016,-0.0161,-0.0162,0,0.0381,0.0405,0.045,0.0477,0.0482,0.0491,0.0499,0.0494,0.0454,0.0433,0.0388,0.033,0.0265,0.0203,0.0062,0.0089,-0.0009,-0.0086,-0.0091,-0.0131,-0.0177,-0.0208,-0.0199,-0.0171,-0.017,-0.0169,-0.0169,0,0.0434,0.0469,0.0513,0.0519,0.0533,0.0548,0.055,0.0529,0.055,0.0506,0.0518,0.0418,0.0382,0.0246,0.0091,0.0077,-0.0065,-0.0109,-0.0212,-0.0214,-0.023,-0.0232,-0.0209,-0.0209,-0.0209,-0.0209,-0.0208,0,0.0486,0.0521,0.0542,0.0564,0.0624,0.0606,0.0658,0.0643,0.0646,0.0684,0.0583,0.0593,0.0392,0.0289,0.0127,-0.0046,-0.004,-0.0198,-0.0234,-0.0201,-0.0199,-0.022,-0.022,-0.0212,-0.0211,-0.0211,-0.021,0,0.0534,0.0543,0.06,0.0632,0.065,0.0688,0.0743,0.0781,0.0768,0.0814,0.0811,0.0728,0.0593,0.039,0.0172,0.0018,-0.0159,-0.0226,-0.0168,-0.0196,-0.0292,-0.0287,-0.0351,-0.0352,-0.0353,-0.0354,-0.0354,0,0.056,0.0594,0.0656,0.0699,0.0716,0.0775,0.0821,0.0837,0.0893,0.0905,0.0942,0.0836,0.0785,0.0466,0.0171,-0.0108,-0.0152,-0.0269,-0.0299,-0.0277,-0.0306,-0.03,-0.0294,-0.0292,-0.0292,-0.0292,-0.0292,0,0.0616,0.0633,0.0679,0.077,0.0831,0.0912,0.0983,0.1053,0.1077,0.1128,0.1168,0.1131,0.083,0.0559,0.0172,-0.0022,-0.0224,-0.0279,-0.0273,-0.0254,-0.0226,-0.0253,-0.0249,-0.0293,-0.0293,-0.0293,-0.0293,-0.0293,0.0654,0.0698,0.076,0.0848,0.0926,0.1032,0.1114,0.1205,0.1312,0.1393,0.1344,0.1303,0.0971,0.0497,0.0146,-0.0226,-0.0214,-0.0344,-0.0342,-0.0341,-0.0312,-0.0287,-0.0359,-0.0359,-0.036,-0.036,-0.036,0,0.0703,0.0754,0.0837,0.0941,0.1035,0.1072,0.1215,0.1302,0.1442,0.1519,0.1557,0.1263,0.0953,0.0572,0.0027,-0.03,-0.0332,-0.0404,-0.037,-0.0366,-0.0364,-0.0336,-0.039,-0.0392,-0.0393,-0.0393,0,0,0.0728,0.0809,0.0851,0.1009,0.1093,0.1233,0.1322,0.1454,0.1549,0.163,0.1623,0.1564,0.1095,0.0701,0.0245,-0.007,-0.0142,-0.0134,-0.0073,0.0025,0.0031,-0.0293,-0.0242,0,0,0,0,0]}],[{"header":{"parameterUnit":"m.s-1","parameterCategory":2,"la1":30.2991,"la2":30.254,"lo1":-89.0895,"lo2":-89.0444,"dy":0.0017,"dx":0.0017,"nx":28,"ny":28,"refTime":"2026-02-15T03:00:00:Z","depth":"4","parameterNumber":2,"parameterNumberName":"U-component_of_CURRENTS"},"data":[0,0,0,0,0,0,0,0,0,0,0,0,0,0,0,0,0,0,0,0,0,0,0,0,0,0,0,0,0,0,0,0,0,0,0,0,0,0,0,0,0,0,0,0,0,0,0,0,0,0,0,0,0,0,0,0,0,0,0.1916,0.1917,0,0.1985,0.1986,0.1986,0.2042,0.2043,0.2043,0.2044,0.2115,0.2116,0.2118,0,0,0,0,0,0,0,0,0,0,0,0,0,0.1809,0.1811,0.1916,0.1917,0.1918,0.1985,0.1986,0.1986,0.2042,0.2043,0.2044,0.2045,0.2115,0.2116,0.2118,0,0,0,0,0,0,0,0,0,0,0,0,0,0.1862,0.1811,0.1916,0.1956,0.1961,0.1985,0.1986,0.1986,0.2041,0.2043,0.2044,0.2045,0.2115,0.2116,0.2118,0.2103,0,0,0.2123,0.2124,0,0,0,0,0,0,0,0,0.1859,0.1865,0.1949,0.1953,0.1958,0.2009,0.1974,0.2027,0.2041,0.2008,0.2044,0.2046,0.2081,0.2085,0.2091,0.2107,0.211,0.2123,0.2124,0.2125,0.2125,0,0,0,0,0,0,0,0.1855,0.1863,0.1941,0.195,0.1956,0.1963,0.1972,0.1984,0.2034,0.2011,0.2016,0.2027,0.2083,0.209,0.2094,0.2111,0.2123,0.2125,0.2126,0.2126,0.2233,0.2235,0,0,0,0,0,0,0.1852,0.1859,0.1938,0.1943,0.1914,0.1964,0.1974,0.1989,0.2034,0.2043,0.2026,0.203,0.2086,0.2092,0.2096,0.2188,0.2125,0.2126,0.2127,0.2231,0.2234,0.2236,0,0,0,0,0,0,0.185,0.1859,0.1936,0.1905,0.1915,0.1965,0.1981,0.199,0.2036,0.2047,0.2055,0.2069,0.2087,0.2094,0.2145,0.2188,0.2127,0.2129,0.2229,0.2232,0.2235,0.2304,0,0,0,0,0,0,0.1846,0.1857,0.1885,0.1905,0.1917,0.1975,0.1981,0.199,0.204,0.2046,0.2085,0.2091,0.2089,0.2142,0.2146,0.2189,0.213,0.2227,0.223,0.2234,0.2299,0.2309,0.2317,0,0,0,0,0,0.1842,0.1867,0.1886,0.1897,0.1948,0.1977,0.1984,0.202,0.2041,0.2066,0.2097,0.2091,0.2167,0.2145,0.2149,0.2193,0.2225,0.2229,0.2233,0.2295,0.2307,0.2317,0,0,0,0,0,0,0.1836,0.1876,0.1897,0.1935,0.1967,0.1988,0.2021,0.2041,0.2084,0.2104,0.2111,0.2119,0.218,0.2176,0.2151,0.2235,0.2197,0.2202,0.2243,0.2253,0.2262,0.2261,0.2131,0,0,0,0,0,0.1847,0.1881,0.1913,0.1949,0.1969,0.2002,0.2027,0.2052,0.2083,0.2106,0.2133,0.2164,0.2192,0.2216,0.2236,0.2279,0.228,0.2311,0.232,0.2327,0.2331,0.237,0.2382,0.2249,0.2249,0.2249,0,0,0.1854,0.1883,0.1904,0.1951,0.1982,0.2013,0.2021,0.207,0.2106,0.2105,0.2175,0.2197,0.2211,0.2263,0.229,0.2271,0.2369,0.2333,0.2339,0.2338,0.2375,0.2388,0.24,0.2252,0.2251,0.2251,0,0,0.1871,0.1915,0.1945,0.1976,0.2031,0.2049,0.2072,0.2116,0.2153,0.2209,0.2224,0.2273,0.2316,0.2337,0.2349,0.2417,0.2413,0.2433,0.2479,0.2517,0.2528,0.2538,0.2564,0.2576,0.2438,0.2438,0.2438,0,0.1882,0.1923,0.1958,0.1993,0.2026,0.2069,0.2104,0.2142,0.2201,0.2235,0.2245,0.2331,0.2347,0.2406,0.2436,0.2437,0.2456,0.2437,0.2528,0.2538,0.2547,0.2571,0.2583,0.2442,0.2442,0.2441,0.2441,0,0.1907,0.1956,0.1979,0.2037,0.2075,0.2117,0.2166,0.222,0.2269,0.2302,0.2386,0.2414,0.2464,0.2484,0.2482,0.256,0.2552,0.2534,0.2499,0.2564,0.2586,0.2597,0.2448,0.2446,0.2445,0.2444,0,0,0.1884,0.1977,0.199,0.2027,0.2106,0.2132,0.2207,0.2273,0.2327,0.2395,0.2463,0.2524,0.2552,0.2568,0.2585,0.2622,0.2704,0.2614,0.2614,0.2636,0.2793,0.264,0.2636,0.2709,0.2711,0.2713,0.2786,0,0.1896,0.1962,0.201,0.208,0.2115,0.2185,0.2243,0.2315,0.2381,0.2458,0.2514,0.2583,0.2581,0.2622,0.2662,0.2697,0.2735,0.2685,0.2731,0.2732,0.2583,0.2644,0.272,0.2794,0.2797,0.2799,0.28,0,0.1895,0.1944,0.2011,0.2103,0.2127,0.2179,0.2285,0.2344,0.2456,0.2512,0.2595,0.2641,0.2728,0.2708,0.2802,0.2777,0.2795,0.2809,0.2812,0.2648,0.2597,0.2715,0.2819,0.2818,0.2816,0.2815,0.2814,0,0.1841,0.1941,0.1996,0.203,0.2138,0.2194,0.2258,0.2366,0.2435,0.2559,0.2626,0.2717,0.2788,0.2829,0.2876,0.2854,0.2963,0.2927,0.2802,0.2792,0.2877,0.2866,0.2984,0.2984,0.2984,0.2983,0.2983,0,0.1811,0.1862,0.1984,0.2013,0.2088,0.2175,0.2265,0.2346,0.2474,0.2544,0.2656,0.272,0.2827,0.2899,0.2912,0.2894,0.2995,0.2818,0.2802,0.2906,0.2897,0.2885,0.2873,0.2986,0.2985,0.2985,0.2984,0,0.1737,0.1819,0.189,0.2018,0.2065,0.2119,0.227,0.2326,0.2464,0.2564,0.2615,0.2766,0.2845,0.2927,0.3002,0.2928,0.293,0.2897,0.302,0.3009,0.2723,0.2714,0.275,0.2745,0.2741,0.2738,0.2735,0,0.1699,0.1731,0.1879,0.1922,0.1988,0.2088,0.2148,0.2303,0.2362,0.2558,0.2589,0.274,0.2811,0.2798,0.2891,0.2908,0.2876,0.2856,0.2765,0.2718,0.2701,0.2698,0.2694,0.2729,0.2728,0.2726,0.2725,0,0.1625,0.1697,0.1755,0.1849,0.1926,0.1995,0.2099,0.2134,0.2293,0.2449,0.2499,0.2548,0.2637,0.2688,0.2735,0.2737,0.2852,0.2812,0.2819,0.2734,0.2693,0.2679,0.268,0.2711,0.2713,0.2715,0.2715,0,0.1573,0.1596,0.1686,0.1751,0.1843,0.187,0.1939,0.2003,0.2086,0.2295,0.2304,0.2456,0.2599,0.2601,0.2639,0.2639,0.2591,0.2492,0.2515,0.2532,0.2428,0.2341,0.2244,0,0,0,0,0,0.1508,0.1519,0.1576,0.1636,0.1721,0.177,0.1889,0.1959,0.2115,0.2091,0.2193,0.2256,0.2316,0.2405,0.2362,0.2555,0.2609,0.2494,0.2509,0.2633,0.265,0.2548,0,0,0,0,0,0,0.1461,0.1513,0.1533,0.1526,0.1542,0.1613,0.1677,0.1781,0.1778,0.1947,0.1993,0.2125,0.2223,0.2315,0.2319,0.2346,0.231,0.26,0.2594,0.2624,0.2639,0.2652,0.2553,0,0,0,0,0]},{"header":{"parameterUnit":"m.s-1","parameterCategory":2,"la1":30.2991,"la2":30.254,"lo1":-89.0895,"lo2":-89.0444,"dy":0.0017,"dx":0.0017,"nx":28,"ny":28,"refTime":"2026-02-15T03:00:00:Z","depth":"4","parameterNumber":3,"parameterNumberName":"V-component_of_CURRENTS"},"data":[0,0,0,0,0,0,0,0,0,0,0,0,0,0,0,0,0,0,0,0,0,0,0,0,0,0,0,0,0,0,0,0,0,0,0,0,0,0,0,0,0,0,0,0,0,0,0,0,0,0,0,0,0,0,0,0,0,0,0.0016,0.0016,0,-0.004,-0.0041,-0.0042,-0.0078,-0.0078,-0.0078,-0.0079,-0.016,-0.0162,-0.0164,0,0,0,0,0,0,0,0,0,0,0,0,0,0.0049,0.0049,0.0016,0.0016,0.0015,-0.004,-0.0041,-0.0042,-0.0078,-0.0078,-0.0078,-0.0079,-0.0159,-0.0162,-0.0164,0,0,0,0,0,0,0,0,0,0,0,0,0,0.0017,0.0049,0.0016,-0.0009,-0.0012,-0.004,-0.0041,-0.0042,-0.0078,-0.0078,-0.0078,-0.0079,-0.0158,-0.0161,-0.0164,-0.0178,0,0,-0.0174,-0.0175,0,0,0,0,0,0,0,0,0.0019,0.0016,-0.0005,-0.0007,-0.0011,-0.0052,-0.0059,-0.0089,-0.0078,-0.0054,-0.0079,-0.0079,-0.0125,-0.0131,-0.0142,-0.0182,-0.0186,-0.0174,-0.0176,-0.0177,-0.0178,0,0,0,0,0,0,0,0.0022,0.0018,-0.0007,-0.0005,-0.0009,-0.0033,-0.0037,-0.0065,-0.0089,-0.0056,-0.0059,-0.0063,-0.0127,-0.0139,-0.0144,-0.0187,-0.0174,-0.0176,-0.0178,-0.018,-0.0243,-0.0243,0,0,0,0,0,0,0.0033,0.0021,-0.0005,-0.0009,0.0005,-0.0033,-0.0038,-0.0039,-0.0088,-0.0095,-0.0063,-0.0065,-0.0134,-0.0141,-0.0147,-0.0155,-0.0177,-0.018,-0.0182,-0.0243,-0.0243,-0.0243,0,0,0,0,0,0,0.0034,0.0031,-0.0003,0.0005,-0.0001,-0.0033,-0.0034,-0.004,-0.005,-0.0093,-0.0101,-0.0067,-0.0134,-0.0143,-0.0166,-0.0159,-0.0181,-0.0184,-0.0243,-0.0243,-0.0243,-0.0179,0,0,0,0,0,0,0.0035,0.0032,0.0035,0.0006,-0.0001,-0.0012,-0.0034,-0.0041,-0.0053,-0.0055,-0.0099,-0.0107,-0.0135,-0.0161,-0.0169,-0.0164,-0.0186,-0.0243,-0.0243,-0.0243,-0.0182,-0.0177,-0.0173,0,0,0,0,0,0.0036,0.0045,0.0036,0.0033,0.0005,-0.0012,-0.0017,-0.0042,-0.0052,-0.0053,-0.0082,-0.0105,-0.0166,-0.0164,-0.0173,-0.0168,-0.0244,-0.0243,-0.0243,-0.0184,-0.0178,-0.0173,0,0,0,0,0,0,0.0061,0.0041,0.0031,0.0033,0.0015,-0.0017,-0.0019,-0.0037,-0.006,-0.0062,-0.0104,-0.0113,-0.0132,-0.016,-0.0156,-0.0187,-0.0209,-0.021,-0.016,-0.0156,-0.0151,-0.0133,-0.0189,0,0,0,0,0,0.0069,0.007,0.0045,0.0048,0.0042,0.0012,0.0002,-0.0013,-0.0038,-0.0048,-0.0079,-0.0111,-0.0139,-0.0153,-0.0182,-0.0198,-0.0225,-0.0202,-0.0197,-0.0193,-0.0185,-0.0222,-0.022,-0.0242,-0.0242,-0.0242,0,0,0.0078,0.0068,0.0069,0.0053,0.0038,0.0037,0.0006,-0.0002,-0.0003,-0.0054,-0.0063,-0.0098,-0.014,-0.0156,-0.0167,-0.0178,-0.0202,-0.0193,-0.0189,-0.0183,-0.0221,-0.0219,-0.0217,-0.0242,-0.0242,-0.0242,0,0,0.0103,0.0092,0.0103,0.0092,0.0076,0.0059,0.006,0.0032,0.0019,0.0003,-0.0032,-0.0059,-0.0102,-0.0128,-0.0148,-0.0138,-0.0178,-0.015,-0.0112,-0.0148,-0.0146,-0.0145,-0.0174,-0.0176,-0.0147,-0.0147,-0.0147,0,0.0116,0.0127,0.0103,0.0111,0.011,0.0074,0.0087,0.0068,0.0036,0.003,0.001,-0.005,-0.0087,-0.0107,-0.0104,-0.0127,-0.0153,-0.0126,-0.0141,-0.0141,-0.0141,-0.0171,-0.0174,-0.0144,-0.0144,-0.0144,-0.0145,0,0.0147,0.0156,0.0163,0.0163,0.0159,0.0164,0.0139,0.0131,0.0109,0.0088,0.0063,0.0009,-0.0023,-0.0043,-0.0071,-0.0087,-0.0107,-0.0131,-0.015,-0.0134,-0.0168,-0.0172,-0.0139,-0.014,-0.0141,-0.0142,0,0,0.0175,0.0184,0.0187,0.0203,0.0189,0.0193,0.0193,0.0184,0.0192,0.0146,0.0147,0.009,0.006,0.0035,-0.0009,-0.0043,-0.0067,-0.008,-0.0084,-0.0101,-0.0142,-0.0145,-0.015,-0.0095,-0.0095,-0.0095,-0.0164,0,0.0207,0.0242,0.0235,0.027,0.0287,0.0262,0.0269,0.0256,0.0235,0.0224,0.0163,0.0145,0.009,0.0078,0.0034,-0.004,-0.0076,-0.0046,-0.0161,-0.0164,-0.0163,-0.0154,-0.0097,-0.0167,-0.0168,-0.0169,-0.0169,0,0.024,0.0261,0.0303,0.0332,0.0338,0.0351,0.0364,0.0364,0.0335,0.0318,0.0282,0.0237,0.0184,0.0133,0.0016,0.0038,-0.0042,-0.0106,-0.0111,-0.0137,-0.0175,-0.019,-0.0178,-0.0177,-0.0176,-0.0176,-0.0175,0,0.0274,0.0311,0.035,0.0358,0.0379,0.0396,0.0404,0.0393,0.0412,0.0379,0.0389,0.0308,0.0277,0.0166,0.0037,0.0027,-0.0095,-0.0128,-0.0208,-0.0209,-0.0214,-0.0215,-0.021,-0.021,-0.021,-0.021,-0.021,0,0.0309,0.0342,0.0372,0.0392,0.0448,0.0442,0.0491,0.0483,0.049,0.052,0.0443,0.0443,0.0284,0.0197,0.0065,-0.0077,-0.0076,-0.0195,-0.0225,-0.0186,-0.0183,-0.0217,-0.0217,-0.0212,-0.0212,-0.0211,-0.0211,0,0.0336,0.0353,0.0405,0.0445,0.0466,0.0502,0.0561,0.0593,0.0588,0.0625,0.0623,0.0549,0.0431,0.0271,0.0089,-0.0027,-0.0172,-0.0225,-0.0158,-0.0184,-0.027,-0.0266,-0.0317,-0.0318,-0.0319,-0.0319,-0.0319,0,0.0351,0.038,0.0448,0.0489,0.0512,0.0569,0.0613,0.0636,0.0679,0.069,0.0712,0.0623,0.0548,0.0306,0.0115,-0.0132,-0.0176,-0.0254,-0.0276,-0.0256,-0.028,-0.0275,-0.0271,-0.032,-0.032,-0.0321,-0.0321,0,0.0381,0.0404,0.0448,0.0533,0.0593,0.0667,0.0732,0.0776,0.0802,0.0809,0.0797,0.067,0.0535,0.0323,0.0133,-0.005,-0.0206,-0.0261,-0.0262,-0.0283,-0.026,-0.0283,-0.0278,-0.0323,-0.0322,-0.0322,-0.0322,0,0.0401,0.0437,0.0495,0.0572,0.0654,0.0735,0.077,0.0822,0.0864,0.0876,0.0868,0.0717,0.0629,0.0365,0.019,0.0012,-0.0047,-0.012,-0.0129,-0.0129,-0.0065,-0.0007,-0.001,0,0,0,0,0,0.0418,0.046,0.0532,0.0616,0.0699,0.0751,0.0838,0.0866,0.09,0.0907,0.0894,0.0769,0.0513,0.0404,0.0227,0.0152,-0.0096,-0.0065,-0.0188,-0.0333,-0.0331,-0.0288,0,0,0,0,0,0,0.0427,0.0491,0.0529,0.0637,0.0702,0.0799,0.0857,0.0885,0.0892,0.0899,0.0776,0.0713,0.0471,0.062,0.0223,0.0167,0.0061,-0.0181,-0.0186,-0.0334,-0.0332,-0.033,-0.0286,0,0,0,0,0]}]]